KHPNKLDJ

Guest
Details From KHPN - Westchester Co
To KLDJ - Linden
Flight Number -
Tags Generated
Created
Modified
Stats Distance 36 nm / 67 km
Max Altitude 0 ft / 0 m
Waypoints 2
Social Downloads 1
Likes 0
Share VATSIM

Download

Looking for another format? Having issues loading an existing format? Contact us
Advertisement - Login to hide

Notes

Generated

Route

KHPN KLDJ

ID Type Via Altitude Latitude Longitude Leg Dist Tot Dist Heading (true) Name
O KHPN APT - 0 ft / 0 m 41.06705˚ -73.71576˚ - 0 nm - -
O KLDJ APT - 0 ft / 0 m 40.61604˚ -74.25182˚ 36 nm 36 nm 222° / 222° -

Altitude Profile

Advertisement - Login to hide

KHPN

Details ICAO KHPN (HPN)
Name WESTCHESTER CO
Region United States
Timezone America/New_York (UTC-4.0)
Stats Elevation 439 ft / 134 m (AMSL)
Location 41.066758° -73.707617°
Runways 2
Magnetic Variation 13.117° W

METAR

KHPN 220756Z 00000KT 10SM CLR 13/11 A3016 RMK AO2 SLP209 T01330111

Decode

TAF

TAF AMD KHPN 220832Z 2209/2306 VRB02KT P6SM FEW150 OVC250 FM221300 14005KT P6SM BKN070 OVC150 FM221700 07005KT 6SM -SHRA BKN035 OVC060 FM222100 08005KT 3SM -SHRA BR OVC008 FM230000 VRB02KT 2SM -SHRA BR OVC004 AMD NOT SKED

Decode

Departure Runways

ID Width Length Bearing (true) Bearing (mag) Surface Threshold Offset Overrun Length
11 151 ft / 46 m 4,441 ft / 1,354 m 102.45° 115.57° Asphalt 0 ft / 0 m 0 ft / 0 m
16 151 ft / 46 m 6,551 ft / 1,997 m 149.99° 163.11° Asphalt 0 ft / 0 m 200 ft / 61 m
29 151 ft / 46 m 4,441 ft / 1,354 m 282.46° 295.58° Asphalt 1,296 ft / 395 m 0 ft / 0 m
34 151 ft / 46 m 6,551 ft / 1,997 m 330.00° 343.12° Asphalt 0 ft / 0 m 200 ft / 61 m

KLDJ

Details ICAO KLDJ (LDJ)
Name LINDEN
Region United States
Timezone America/New_York (UTC-4.0)
Stats Elevation 23 ft / 7 m (AMSL)
Location 40.617449° -74.244595°
Runways 1
Magnetic Variation 12.744° W

METAR

KLDJ 220835Z AUTO 00000KT 10SM CLR 15/11 A3016 RMK AO2 T01540107

Decode

TAF

Not found

Destination Runways

ID Width Length Bearing (true) Bearing (mag) Surface Threshold Offset Overrun Length
09 98 ft / 30 m 4,131 ft / 1,259 m 75.60° 88.34° Asphalt 459 ft / 140 m 200 ft / 61 m
27 98 ft / 30 m 4,131 ft / 1,259 m 255.61° 268.35° Asphalt 545 ft / 166 m 200 ft / 61 m